Retour au catalogue

IRNSS R1A

ActifNavigationGEO
NORAD 39199·PAYLOAD·🇮🇳 India

Lancé Jul 1, 2013 depuis Satish Dhawan Space Centre

Loading…

TLE

FraisSource: CelesTrak SupGP

Époque: Sep 13, 2026, 23:59 UTC

1 39199C 13034A   26256.99979167  .00000146  00000+0  00000+0 0  2565
2 39199  35.9167  62.5987 0020282 178.7758 166.5724  1.00275528    10

Suivez IRNSS R1A en temps réel avec AllMySat

Download on the App Store